Tracking 21092 objects as of 14-Aug-2020
HD Live streaming from Space Station
objects crossing your sky now
Track the most recent launched group of Starlink satellites

SL-8 R/B

Track SL-8 R/B now!
10-day predictions


NORAD ID: 8295
Int'l Code: 1975-086J
Perigee: 1,489.0 km
Apogee: 1,692.2 km
Inclination: 74.0 °
Period: 117.8 minutes
Semi major axis: 7961 km
RCS: 6.5123 m2 (large)
Launch date: September 17, 1975
Source: Commonwealth of Independent States (former USSR) (CIS)
Launch site: PLESETSK MISSILE AND SPACE COMPLEX (PKMTR)

Note: This is a ROCKET BODY
aabbcc
Your satellite tracking list
Your tracking list is empty




NASA's NSSDC Master Catalog

Two Line Element Set (TLE):
1  8295U 75086J   20226.92942615 -.00000053 +00000-0 -34334-3 0  9990
2  8295 074.0093 279.1622 0127608 306.4624 228.9146 12.22079161003711
Source of the keplerian elements: AFSPC